Flag for Russia Weather past 2 weeks in Krasnodar, Russia

Now
64 °F

Sunny.


Feels Like: 64 °F
Forecast: 50 / 72 °F
Wind: No wind

Location: Krasnodar Airport


UV Index: 3 (Moderate)

Visibility: 10 mi


Pressure: 30.04 "Hg

Humidity: 73%

Dew point: 55 °F

Location of KrasnodarLocation

Historic Weather in Krasnodar

°F

Krasnodar temperature yesterday

Maximum temperature yesterday: 63 °F (at 4:00 PM)
Minimum temperature yesterday: 50 °F (at 1:30 AM)
Average temperature yesterday: 56 °F

Past Weeks' High & Low Weather Summary

 TemperatureHumidityPressure
High81 °F (Apr 19, 4:00 PM)100% (Apr 13, 6:30 AM)30.09 "Hg (Apr 13, 6:30 AM)
Low39 °F (Apr 9, 3:30 AM)29% (Apr 10, 5:00 PM)29.77 "Hg (Apr 18, 2:00 PM)
Average57 °F75%29.98 "Hg
* Reported Apr 8 5:00 PM — Apr 23 5:30 PM, Krasnodar, Weather by CustomWeather, © 2014

Note: Actual official high and low records may vary slightly from our data, if they occured in-between our weather recording intervals... More about our weather records

Advertising

Historic Weather Conditions — Data for Previous 24 hours

 ConditionsComfort  
Time TempWeatherWind HumidityBarometerVisibility
5:30 PM
Apr 23
64 °FBroken clouds.3 mph68%30.04 "HgN/A
5:00 PM64 °FPartly sunny.6 mph73%30.04 "HgN/A
4:30 PM64 °FOvercast.6 mph73%30.04 "HgN/A
4:00 PM63 °FSprinkles. Overcast.8 mph77%30.04 "HgN/A
3:30 PM63 °FSprinkles. More clouds than sun.8 mph77%30.04 "HgN/A
3:00 PM61 °FSprinkles. More clouds than sun.8 mph83%30.04 "HgN/A
2:30 PM61 °FSprinkles. Cloudy.8 mph77%30.04 "HgN/A
2:00 PM59 °FSprinkles. Cloudy.10 mph88%30.04 "HgN/A
1:30 PM59 °FSprinkles. Cloudy.8 mph88%30.04 "Hg6 mi
1:00 PM59 °FSprinkles. Cloudy.10 mph88%30.04 "Hg6 mi
12:30 PM59 °FSprinkles. Broken clouds.13 mph88%30.04 "HgN/A
12:00 PM57 °FSprinkles. Broken clouds.10 mph88%30.07 "HgN/A
11:30 AM57 °FSprinkles. Broken clouds.13 mph88%30.04 "HgN/A
11:00 AM57 °FSprinkles. Broken clouds.10 mph82%30.04 "HgN/A
10:30 AM57 °FLight rain. Broken clouds.10 mph82%30.04 "HgN/A
10:00 AM57 °FLight rain. Broken clouds.10 mph88%30.04 "HgN/A
9:30 AM55 °FBroken clouds.10 mph88%30.04 "HgN/A
9:00 AM55 °FPartly sunny.10 mph88%30.04 "Hg5 mi
8:30 AM54 °FPartly sunny.10 mph94%30.04 "Hg4 mi
8:00 AM54 °FPartly sunny.10 mph94%30.04 "HgN/A
7:30 AM54 °FPartly sunny.10 mph94%30.04 "HgN/A
7:00 AM54 °FPassing clouds.10 mph94%30.04 "HgN/A
6:30 AM55 °FPassing clouds.10 mph88%30.04 "HgN/A
6:00 AM55 °FPassing clouds.8 mph88%30.04 "HgN/A
5:30 AM55 °FPassing clouds.8 mph88%30.04 "HgN/A
5:00 AM55 °FPassing clouds.8 mph88%30.04 "HgN/A
4:30 AM55 °FPassing clouds.8 mph88%30.04 "Hg6 mi
4:00 AM55 °FPartly cloudy.8 mph88%30.04 "Hg6 mi
3:30 AM55 °FPartly cloudy.6 mph94%30.04 "Hg4 mi
3:00 AM55 °FPartly cloudy.6 mph94%30.04 "Hg5 mi
2:30 AM55 °FPassing clouds.6 mph94%30.04 "Hg4 mi
2:00 AM55 °FFog.3 mph94%30.04 "Hg3 mi
1:30 AM55 °FPassing clouds.3 mph94%30.04 "HgN/A
1:00 AM55 °FPassing clouds.6 mph94%30.04 "HgN/A
12:30 AM55 °FPassing clouds.6 mph94%30.04 "HgN/A
12:00 AM55 °FPassing clouds.6 mph94%30.04 "HgN/A
11:30 PM
Apr 22
57 °FPassing clouds.6 mph88%30.04 "HgN/A
11:00 PM57 °FPassing clouds.6 mph88%30.07 "HgN/A
10:30 PM57 °FPartly cloudy.3 mph94%30.07 "HgN/A
10:00 PM57 °FPartly cloudy.No wind94%30.07 "HgN/A
9:30 PM59 °FPartly cloudy.1 mph88%30.07 "HgN/A
9:00 PM59 °FBroken clouds.3 mph88%30.07 "HgN/A
8:30 PM59 °FBroken clouds.6 mph88%30.07 "HgN/A
8:00 PM57 °FBroken clouds.3 mph94%30.07 "HgN/A
7:30 PM59 °FBroken clouds.3 mph88%30.07 "HgN/A
7:00 PM59 °FBroken clouds.6 mph88%30.07 "HgN/A
Weather by CustomWeather, © 2014

See weather overview